Pensacola, FL

10:04 AM CST on November 21, 2017 (GMT -0600)
Pensacola Regional

Weather History for KPNS - January, 2014

Change the Weather History Date:

Tuesday, January 14, 2014

  Actual Average Record
Temperature  
Mean Temperature 57 °F 51 °F  
Max Temperature 67 °F 60 °F 78 °F (1971)
Min Temperature 47 °F 42 °F 20 °F (1964)
Degree Days  
Heating Degree Days 8 14  
Month to date heating degree days 229 196  
Since 1 July heating degree days 724 778  
Cooling Degree Days 0 0  
Month to date cooling degree days 0 0  
Year to date cooling degree days 0 0  
Growing Degree Days 6 (Base 50)    
Moisture  
Dew Point 46 °F    
Average Humidity 59    
Maximum Humidity 93    
Minimum Humidity 24    
Precipitation  
Precipitation 0.00 in 0.15 in 2.14 in (1977)
Month to date precipitation 2.70 1.95  
Year to date precipitation 2.70 1.95  
Snow  
Snow 0.00 in 0.00 in - ()
Month to date snowfall 0.0 0.0  
Since 1 July snowfall 0.0 0.0  
Snow Depth 0.00 in    
Sea Level Pressure  
Sea Level Pressure 29.98 in    
Wind  
Wind Speed 10 mph (NW)    
Max Wind Speed 23 mph    
Max Gust Speed 32 mph    
Visibility 10 miles    
Events      
T = Trace of Precipitation, MM = Missing Value Source: NWS Daily Summary

Daily Weather History Graph

Daily Weather History Graph

Search for Another Location

Airport or City:

Trip Planner

Search our weather history database for the weather conditions in past years. The results will help you decide how hot, cold, wet, or windy it might be!

Date:

Astronomy

Jan. 14, 2014 Rise Set
Actual Time 6:46 AM CST 5:09 PM CST
Civil Twilight 6:20 AM CST 5:35 PM CST
Nautical Twilight 5:50 AM CST 6:05 PM CST
Astronomical Twilight 5:21 AM CST 6:34 PM CST
Moon 4:12 PM CST (1/14) 5:22 AM CST (1/14)
Length of Visible Light 11h 15m
Length of Day
10h 23m
Waxing Gibbous, 98% of the Moon is Illuminated
Jan 14
Waxing Gibbous
Jan 15
Full
Jan 23
Last Quarter
Jan 30
New
Feb 6
First Quarter

Hourly Weather History & Observations

Time (CST) Temp. Dew Point Humidity Pressure Visibility Wind Dir Wind Speed Gust Speed Precip Events Conditions
12:10 AM 62.1 °F 60.1 °F 93% 29.87 in 10.0 mi WNW 5.8 mph - N/A   Overcast
12:20 AM 62.1 °F 60.1 °F 93% 29.86 in 10.0 mi WNW 5.8 mph - N/A   Overcast
12:28 AM 62.1 °F 60.1 °F 93% 29.87 in 10.0 mi WNW 8.1 mph - N/A   Overcast
12:45 AM 62.1 °F 60.1 °F 93% 29.87 in 10.0 mi WNW 10.4 mph - N/A   Overcast
12:53 AM 62.1 °F 60.1 °F 93% 29.88 in 10.0 mi WNW 11.5 mph - N/A   Overcast
1:28 AM 61.0 °F 57.9 °F 90% 29.87 in 10.0 mi WNW 9.2 mph - N/A   Mostly Cloudy
1:46 AM 61.0 °F 57.9 °F 90% 29.88 in 9.0 mi WNW 12.7 mph - N/A   Mostly Cloudy
1:53 AM 61.0 °F 57.9 °F 90% 29.89 in 10.0 mi WNW 13.8 mph - N/A   Mostly Cloudy
2:00 AM 61.0 °F 57.9 °F 90% 29.88 in 10.0 mi WNW 11.5 mph - N/A   Overcast
2:13 AM 61.0 °F 57.0 °F 87% 29.88 in 9.0 mi NW 9.2 mph - N/A   Overcast
2:46 AM 60.1 °F 55.9 °F 86% 29.90 in 10.0 mi NW 17.3 mph 24.2 mph N/A   Mostly Cloudy
2:53 AM 59.0 °F 55.0 °F 87% 29.92 in 10.0 mi NW 17.3 mph 24.2 mph N/A   Mostly Cloudy
3:02 AM 57.9 °F 53.1 °F 84% 29.91 in 10.0 mi NW 19.6 mph 32.2 mph N/A   Partly Cloudy
3:53 AM 55.9 °F 50.0 °F 80% 29.94 in 10.0 mi NNW 12.7 mph - N/A   Partly Cloudy
4:53 AM 54.0 °F 48.0 °F 80% 29.97 in 10.0 mi NW 12.7 mph - N/A   Partly Cloudy
5:53 AM 52.0 °F 46.9 °F 83% 29.99 in 10.0 mi NW 11.5 mph - N/A   Clear
6:53 AM 50.0 °F 46.0 °F 86% 30.01 in 10.0 mi NNW 8.1 mph - N/A   Clear
7:53 AM 53.1 °F 48.0 °F 83% 30.05 in 10.0 mi NNW 12.7 mph - N/A   Clear
8:53 AM 55.9 °F 45.0 °F 67% 30.07 in 10.0 mi NNW 9.2 mph - N/A   Clear
9:53 AM 59.0 °F 39.9 °F 49% 30.08 in 10.0 mi North 9.2 mph - N/A   Clear
10:53 AM 63.0 °F 37.0 °F 38% 30.07 in 10.0 mi NNW 11.5 mph - N/A   Clear
11:53 AM 64.0 °F 32.0 °F 30% 30.04 in 10.0 mi NNW 13.8 mph - N/A   Clear
12:53 PM 64.9 °F 30.9 °F 28% 30.02 in 10.0 mi NNW 6.9 mph - N/A   Clear
1:53 PM 64.9 °F 28.9 °F 26% 30.02 in 10.0 mi NW 8.1 mph - N/A   Clear
2:53 PM 64.9 °F 27.0 °F 24% 30.03 in 10.0 mi West 10.4 mph - N/A   Clear
3:53 PM 64.9 °F 27.0 °F 24% 30.04 in 10.0 mi NNW 6.9 mph - N/A   Clear
4:53 PM 61.0 °F 34.0 °F 36% 30.05 in 10.0 mi North 4.6 mph - N/A   Clear
5:53 PM 57.0 °F 35.1 °F 44% 30.06 in 10.0 mi NW 4.6 mph - N/A   Clear
6:53 PM 52.0 °F 36.0 °F 54% 30.08 in 10.0 mi West 8.1 mph - N/A   Clear
7:53 PM 52.0 °F 37.9 °F 59% 30.09 in 10.0 mi WNW 8.1 mph - N/A   Clear
8:53 PM 51.1 °F 39.9 °F 66% 30.09 in 10.0 mi WNW 6.9 mph - N/A   Clear
9:53 PM 50.0 °F 37.9 °F 63% 30.10 in 10.0 mi WNW 6.9 mph - N/A   Clear
10:53 PM 48.9 °F 39.9 °F 71% 30.08 in 10.0 mi WNW 6.9 mph - N/A   Clear
11:53 PM 46.9 °F 39.0 °F 74% 30.06 in 10.0 mi WNW 6.9 mph - N/A   Clear